Hourly Weather Gola

Today, 13 May, Thursday

Time Temperature Precipitation Wind Pressure Humidity
00:00 +13°C° 0.1 mm 4 mps 732 mmHg 90%
01:00 +12°C° 0.1 mm 4 mps 732 mmHg 89%
02:00 +11°C° 0.1 mm 4 mps 732 mmHg 89%
03:00 +10°C° 0.1 mm 3 mps 732 mmHg 88%
04:00 +10°C° 0.1 mm 3 mps 731 mmHg 88%
05:00 +10°C° 0 mm 3 mps 731 mmHg 85%
06:00 +11°C° 0 mm 4 mps 731 mmHg 82%
07:00 +12°C° 0 mm 4 mps 731 mmHg 79%
08:00 +13°C° 0 mm 4 mps 731 mmHg 75%
09:00 +14°C° 0 mm 3 mps 730 mmHg 72%
10:00 +17°C° 0 mm 3 mps 730 mmHg 68%
11:00 +17°C° 0 mm 3 mps 730 mmHg 65%
12:00 +18°C° 0 mm 2 mps 730 mmHg 62%
13:00 +19°C° 0 mm 2 mps 729 mmHg 59%
14:00 +19°C° 0.1 mm 2 mps 729 mmHg 63%
15:00 +18°C° 0.1 mm 3 mps 729 mmHg 68%
16:00 +17°C° 0.1 mm 3 mps 729 mmHg 72%
17:00 +16°C° 0.1 mm 3 mps 729 mmHg 78%
18:00 +14°C° 0.1 mm 4 mps 729 mmHg 83%
19:00 +13°C° 0.1 mm 5 mps 729 mmHg 89%
20:00 +12°C° 0 mm 5 mps 729 mmHg 90%
21:00 +12°C° 0 mm 5 mps 730 mmHg 92%
22:00 +10°C° 0 mm 5 mps 730 mmHg 94%
23:00 +10°C° 0 mm 5 mps 730 mmHg 93%

Tomorrow, 14 May, Friday

Time Temperature Precipitation Wind Pressure Humidity
00:00 +9°C° 0 mm 5 mps 730 mmHg 93%
01:00 +9°C° 0 mm 5 mps 730 mmHg 92%
02:00 +9°C° 0 mm 5 mps 731 mmHg 92%
03:00 +9°C° 0 mm 5 mps 731 mmHg 92%
04:00 +9°C° 0 mm 5 mps 731 mmHg 91%
05:00 +8°C° 0.2 mm 5 mps 732 mmHg 92%
06:00 +8°C° 0.2 mm 5 mps 732 mmHg 92%
07:00 +8°C° 0.2 mm 5 mps 732 mmHg 92%
08:00 +8°C° 0.2 mm 5 mps 733 mmHg 91%
09:00 +8°C° 0.2 mm 5 mps 733 mmHg 89%
10:00 +9°C° 0.2 mm 5 mps 734 mmHg 88%
11:00 +9°C° 0.1 mm 5 mps 734 mmHg 84%
12:00 +10°C° 0.1 mm 5 mps 734 mmHg 80%
13:00 +12°C° 0.1 mm 5 mps 734 mmHg 75%
14:00 +13°C° 0.1 mm 5 mps 734 mmHg 72%
15:00 +13°C° 0.1 mm 5 mps 734 mmHg 69%
16:00 +14°C° 0.1 mm 4 mps 735 mmHg 66%
17:00 +13°C° 0 mm 3 mps 735 mmHg 71%
18:00 +13°C° 0 mm 2 mps 735 mmHg 77%
19:00 +12°C° 0 mm 1 mps 735 mmHg 82%
20:00 +12°C° 0 mm 1 mps 735 mmHg 83%
21:00 +11°C° 0 mm 1 mps 735 mmHg 85%
22:00 +11°C° 0 mm 1 mps 736 mmHg 86%
23:00 +11°C° 0 mm 1 mps 736 mmHg 86%

Day after tomorrow, 15 May, Saturday

Time Temperature Precipitation Wind Pressure Humidity
00:00 +10°C° 0 mm 1 mps 736 mmHg 87%
01:00 +10°C° 0 mm 1 mps 736 mmHg 87%
02:00 +10°C° 0 mm 1 mps 736 mmHg 89%
03:00 +8°C° 0 mm 0 mps 736 mmHg 90%
04:00 +8°C° 0 mm 0 mps 736 mmHg 91%
05:00 +9°C° 0 mm 0 mps 736 mmHg 87%
06:00 +10°C° 0 mm 0 mps 736 mmHg 82%
07:00 +12°C° 0 mm 0 mps 737 mmHg 78%
08:00 +14°C° 0.1 mm 1 mps 737 mmHg 73%
09:00 +15°C° 0.1 mm 1 mps 737 mmHg 68%
10:00 +18°C° 0.1 mm 1 mps 737 mmHg 63%
11:00 +18°C° 0.3 mm 1 mps 736 mmHg 60%
12:00 +19°C° 0.3 mm 1 mps 736 mmHg 57%
13:00 +18°C° 0.3 mm 0 mps 736 mmHg 54%
14:00 +19°C° 0.5 mm 1 mps 736 mmHg 58%
15:00 +19°C° 0.5 mm 1 mps 736 mmHg 62%
16:00 +17°C° 0.5 mm 2 mps 736 mmHg 66%
17:00 +16°C° 0.5 mm 2 mps 736 mmHg 71%
18:00 +15°C° 0.5 mm 2 mps 736 mmHg 77%
19:00 +14°C° 0.5 mm 2 mps 736 mmHg 82%
20:00 +14°C° 0.1 mm 2 mps 736 mmHg 84%
21:00 +13°C° 0.1 mm 2 mps 736 mmHg 86%
22:00 +12°C° 0.1 mm 2 mps 736 mmHg 88%
23:00 +12°C° 0 mm 2 mps 736 mmHg 88%

16 May, Sunday

Time Temperature Precipitation Wind Pressure Humidity
00:00 +12°C° 0 mm 2 mps 736 mmHg 89%
01:00 +10°C° 0 mm 2 mps 736 mmHg 89%
02:00 +10°C° 0 mm 2 mps 736 mmHg 90%
03:00 +10°C° 0 mm 2 mps 736 mmHg 92%
04:00 +10°C° 0 mm 2 mps 736 mmHg 93%
05:00 +10°C° 0 mm 2 mps 736 mmHg 91%
06:00 +12°C° 0 mm 2 mps 736 mmHg 90%
07:00 +13°C° 0 mm 2 mps 736 mmHg 89%
08:00 +14°C° 0.2 mm 2 mps 736 mmHg 85%
09:00 +14°C° 0.2 mm 2 mps 736 mmHg 82%
10:00 +15°C° 0.2 mm 2 mps 736 mmHg 78%
11:00 +16°C° 0.1 mm 2 mps 736 mmHg 74%
12:00 +16°C° 0.1 mm 2 mps 736 mmHg 69%
13:00 +17°C° 0.1 mm 2 mps 736 mmHg 65%
14:00 +17°C° 0.1 mm 2 mps 735 mmHg 64%
15:00 +18°C° 0.1 mm 2 mps 735 mmHg 62%
16:00 +18°C° 0.1 mm 2 mps 735 mmHg 61%
17:00 +17°C° 0.2 mm 2 mps 735 mmHg 68%
18:00 +15°C° 0.2 mm 2 mps 735 mmHg 75%
19:00 +14°C° 0.2 mm 2 mps 735 mmHg 83%
20:00 +13°C° 0.2 mm 2 mps 735 mmHg 86%
21:00 +12°C° 0.2 mm 2 mps 735 mmHg 89%
22:00 +10°C° 0.2 mm 2 mps 736 mmHg 93%
23:00 +10°C° 0 mm 2 mps 736 mmHg 93%

17 May, Monday

Time Temperature Precipitation Wind Pressure Humidity
00:00 +9°C° 0 mm 2 mps 736 mmHg 93%
01:00 +9°C° 0 mm 3 mps 736 mmHg 93%
02:00 +8°C° 0 mm 3 mps 736 mmHg 94%
03:00 +8°C° 0 mm 3 mps 736 mmHg 94%
04:00 +7°C° 0 mm 2 mps 736 mmHg 94%
05:00 +8°C° 0 mm 3 mps 736 mmHg 89%
06:00 +10°C° 0 mm 3 mps 736 mmHg 83%
07:00 +11°C° 0 mm 3 mps 737 mmHg 77%
08:00 +12°C° 0 mm 4 mps 737 mmHg 71%
09:00 +14°C° 0 mm 4 mps 737 mmHg 64%
10:00 +15°C° 0 mm 4 mps 737 mmHg 58%
11:00 +15°C° 0.1 mm 4 mps 736 mmHg 58%
12:00 +17°C° 0.1 mm 4 mps 736 mmHg 57%
13:00 +17°C° 0.1 mm 4 mps 736 mmHg 57%
14:00 +17°C° 0 mm 3 mps 736 mmHg 58%
15:00 +17°C° 0 mm 3 mps 736 mmHg 58%
16:00 +17°C° 0 mm 2 mps 736 mmHg 59%
17:00 +16°C° 0.1 mm 2 mps 736 mmHg 64%
18:00 +15°C° 0.1 mm 2 mps 736 mmHg 69%
19:00 +14°C° 0.1 mm 2 mps 736 mmHg 74%
20:00 +13°C° 0 mm 2 mps 736 mmHg 77%
21:00 +12°C° 0 mm 2 mps 736 mmHg 81%
22:00 +12°C° 0 mm 2 mps 736 mmHg 84%
23:00 +10°C° 0 mm 2 mps 736 mmHg 87%

18 May, Tuesday

Time Temperature Precipitation Wind Pressure Humidity
00:00 +10°C° 0 mm 2 mps 736 mmHg 89%
01:00 +9°C° 0 mm 2 mps 736 mmHg 92%
02:00 +9°C° 0 mm 2 mps 736 mmHg 91%
03:00 +9°C° 0 mm 3 mps 736 mmHg 91%
04:00 +9°C° 0 mm 3 mps 736 mmHg 90%
05:00 +9°C° 0.5 mm 3 mps 736 mmHg 91%
06:00 +8°C° 0.5 mm 4 mps 736 mmHg 91%
07:00 +8°C° 0.5 mm 4 mps 737 mmHg 92%
08:00 +8°C° 1.5 mm 4 mps 737 mmHg 92%
09:00 +8°C° 1.5 mm 4 mps 737 mmHg 92%
10:00 +8°C° 1.5 mm 4 mps 737 mmHg 93%
11:00 +10°C° 1.1 mm 4 mps 737 mmHg 89%
12:00 +10°C° 1.1 mm 4 mps 737 mmHg 85%
13:00 +11°C° 1.1 mm 4 mps 738 mmHg 81%
14:00 +12°C° 0.1 mm 4 mps 738 mmHg 77%
15:00 +12°C° 0.1 mm 4 mps 738 mmHg 73%
16:00 +13°C° 0.1 mm 4 mps 738 mmHg 69%
17:00 +12°C° 0.1 mm 3 mps 738 mmHg 74%
18:00 +12°C° 0.1 mm 3 mps 738 mmHg 79%
19:00 +12°C° 0.1 mm 2 mps 738 mmHg 84%
20:00 +10°C° 0 mm 2 mps 739 mmHg 87%
21:00 +10°C° 0 mm 2 mps 739 mmHg 89%
22:00 +9°C° 0 mm 2 mps 739 mmHg 91%
23:00 +9°C° 0 mm 3 mps 739 mmHg 92%
Show more